Grayling, MI

4:43 PM EST on December 16, 2017 (GMT -0500)
Grayling

Weather History for KGOV - January, 2014

Change the Weather History Date:

Friday, January 3, 2014

  Actual Average (KHTL) Record (KHTL)
Temperature  
Mean Temperature -3 °F -  
Max Temperature 15 °F 26 °F 48 °F (1950)
Min Temperature -19 °F 12 °F -28 °F (1919)
Degree Days  
Heating Degree Days 68    
Moisture  
Dew Point -6 °F    
Average Humidity 70    
Maximum Humidity 82    
Minimum Humidity 57    
Precipitation  
Precipitation 0.00 in - - ()
Sea Level Pressure  
Sea Level Pressure 30.15 in    
Wind  
Wind Speed 4 mph (South)    
Max Wind Speed 18 mph    
Max Gust Speed 30 mph    
Visibility 9 miles    
Events Snow    
Averages and records for this station are not official NWS values.
T = Trace of Precipitation, MM = Missing Value Source: NWS Daily Summary

Daily Weather History Graph

Daily Weather History Graph

Search for Another Location

Airport or City:

Trip Planner

Search our weather history database for the weather conditions in past years. The results will help you decide how hot, cold, wet, or windy it might be!

Date:

Astronomy

Jan. 03, 2014 Rise Set
Actual Time 8:16 AM EST 5:11 PM EST
Civil Twilight 7:42 AM EST 5:44 PM EST
Nautical Twilight 7:06 AM EST 6:21 PM EST
Astronomical Twilight 6:30 AM EST 6:56 PM EST
Moon 9:34 AM EST (1/3) 8:27 PM EST (1/3)
Length of Visible Light 10h 01m
Length of Day
8h 55m
Waxing Crescent, 8% of the Moon is Illuminated
Jan 3
Waxing Crescent
Jan 7
First Quarter
Jan 15
Full
Jan 24
Last Quarter
Jan 30
New

Hourly Weather History & Observations

Time (EST) Temp. Windchill Dew Point Humidity Pressure Visibility Wind Dir Wind Speed Gust Speed Precip Events Conditions
12:15 AM -17.5 °F - -23.8 °F 73% 30.27 in 10.0 mi Calm Calm - N/A   Overcast
12:35 AM -16.4 °F - -22.4 °F 74% 30.26 in 10.0 mi Calm Calm - N/A   Scattered Clouds
12:55 AM -18.4 °F - -24.7 °F 73% 30.25 in 10.0 mi Calm Calm - N/A   Clear
1:15 AM -18.9 °F - -25.6 °F 72% 30.26 in 10.0 mi Calm Calm - N/A   Clear
1:35 AM -19.5 °F - -26.1 °F 71% 30.26 in 10.0 mi Calm Calm - N/A   Scattered Clouds
1:55 AM -19.3 °F - -26.0 °F 71% 30.26 in 10.0 mi Calm Calm - N/A   Mostly Cloudy
2:15 AM -18.8 °F - -25.8 °F 70% 30.27 in 10.0 mi Calm Calm - N/A   Overcast
2:35 AM -16.4 °F - -22.4 °F 74% 30.28 in 10.0 mi Calm Calm - N/A   Overcast
2:55 AM -11.7 °F -23.6 °F -17.1 °F 77% 30.28 in 10.0 mi West 4.6 mph - N/A   Overcast
3:15 AM -8.9 °F - -14.1 °F 78% 30.29 in 7.0 mi Calm Calm - N/A   Overcast
3:35 AM -7.2 °F - -13.0 °F 76% 30.28 in 7.0 mi Calm Calm - N/A   Overcast
3:54 AM -6.9 °F - -12.5 °F 77% 30.28 in 10.0 mi Calm Calm - N/A   Overcast
4:15 AM -6.9 °F - -12.8 °F 75% 30.28 in 7.0 mi Calm Calm - N/A   Overcast
4:34 AM -5.3 °F - -10.7 °F 77% 30.29 in 7.0 mi Calm Calm - N/A   Overcast
4:55 AM -5.1 °F - -10.5 °F 78% 30.28 in 7.0 mi Calm Calm - N/A   Overcast
5:15 AM -4.9 °F - -10.5 °F 77% 30.28 in 5.0 mi Calm Calm - N/A Snow Light Snow
5:34 AM -4.9 °F - -9.9 °F 79% 30.28 in 7.0 mi Calm Calm - N/A   Overcast
5:55 AM -4.9 °F - -9.8 °F 80% 30.29 in 7.0 mi Calm Calm - N/A   Overcast
6:15 AM -4.9 °F - -9.8 °F 80% 30.29 in 7.0 mi Calm Calm - N/A Snow Light Snow
6:34 AM -4.9 °F - -9.6 °F 80% 30.29 in 5.0 mi Calm Calm - N/A Snow Light Snow
6:55 AM -4.0 °F - -8.9 °F 80% 30.28 in 7.0 mi Calm Calm - N/A   Overcast
7:15 AM -4.5 °F - -9.4 °F 80% 30.29 in 10.0 mi Calm Calm - N/A   Overcast
7:34 AM -4.0 °F - -9.0 °F 79% 30.28 in 10.0 mi Calm Calm - N/A   Overcast
7:55 AM -2.2 °F - -6.7 °F 81% 30.28 in 4.0 mi Calm Calm - N/A Snow Light Snow
8:15 AM -3.1 °F - -8.3 °F 78% 30.28 in 3.0 mi Calm Calm - N/A Snow Light Snow
8:35 AM -4.5 °F - -9.4 °F 80% 30.28 in 10.0 mi Calm Calm - N/A   Overcast
8:55 AM -4.9 °F - -9.6 °F 80% 30.28 in 10.0 mi Calm Calm - N/A   Mostly Cloudy
9:15 AM -4.9 °F - -9.4 °F 81% 30.28 in 10.0 mi Calm Calm - N/A   Mostly Cloudy
9:35 AM -4.7 °F - -9.0 °F 82% 30.27 in 10.0 mi Calm Calm - N/A   Scattered Clouds
9:55 AM -3.1 °F - -8.0 °F 80% 30.26 in 10.0 mi Calm Calm - N/A   Clear
10:14 AM -0.8 °F -8.7 °F -7.1 °F 75% 30.27 in 10.0 mi South 3.5 mph - N/A   Mostly Cloudy
10:35 AM 5.4 °F -3.6 °F -1.3 °F 74% 30.26 in 10.0 mi South 4.6 mph - N/A   Overcast
10:55 AM 5.4 °F -3.6 °F -1.5 °F 73% 30.26 in 10.0 mi South 4.6 mph - N/A   Overcast
11:14 AM 7.7 °F -2.4 °F 0.5 °F 72% 30.26 in 10.0 mi South 5.8 mph - N/A   Overcast
11:35 AM 7.7 °F -4.8 °F 0.3 °F 72% 30.25 in 10.0 mi South 8.1 mph - N/A   Overcast
11:55 AM 7.7 °F -5.8 °F 0.3 °F 72% 30.24 in 10.0 mi South 9.2 mph - N/A   Overcast
12:14 PM 7.7 °F -5.8 °F 0.3 °F 72% 30.22 in 4.0 mi SSW 9.2 mph - N/A   Haze
12:35 PM 9.0 °F -4.2 °F 0.9 °F 70% 30.21 in 10.0 mi SSW 9.2 mph - N/A   Overcast
12:55 PM 8.1 °F -3.2 °F -0.0 °F 70% 30.21 in 10.0 mi South 6.9 mph - N/A   Overcast
1:15 PM 8.6 °F -3.7 °F 0.3 °F 69% 30.20 in 10.0 mi South 8.1 mph - N/A   Overcast
1:35 PM 9.3 °F -0.5 °F 0.9 °F 69% 30.19 in 5.0 mi South 5.8 mph - N/A Snow Light Snow
1:55 PM 10.4 °F -1.5 °F 1.4 °F 67% 30.17 in 10.0 mi South 8.1 mph - N/A   Overcast
2:15 PM 12.9 °F -3.4 °F 2.7 °F 64% 30.16 in 10.0 mi SSW 16.1 mph 20.7 mph N/A   Overcast
2:35 PM 12.9 °F -2.8 °F 1.6 °F 61% 30.15 in 7.0 mi South 15.0 mph 21.9 mph N/A   Mostly Cloudy
2:55 PM 12.9 °F -2.8 °F 1.6 °F 61% 30.14 in 10.0 mi South 15.0 mph 24.2 mph N/A   Mostly Cloudy
3:15 PM 12.9 °F -0.9 °F 1.8 °F 61% 30.13 in 10.0 mi South 11.5 mph 17.3 mph N/A   Overcast
3:35 PM 12.9 °F -2.2 °F 1.8 °F 61% 30.11 in 10.0 mi South 13.8 mph 19.6 mph N/A   Mostly Cloudy
3:55 PM 12.9 °F -0.9 °F 1.9 °F 62% 30.11 in 10.0 mi SSE 11.5 mph 18.4 mph N/A   Overcast
4:15 PM 12.4 °F 0.0 °F 1.6 °F 62% 30.11 in 10.0 mi SSE 9.2 mph - N/A   Overcast
4:35 PM 10.9 °F -2.6 °F 0.3 °F 62% 30.11 in 10.0 mi SSE 10.4 mph - N/A   Overcast
4:55 PM 12.6 °F -0.6 °F 1.9 °F 63% 30.10 in 10.0 mi SSE 10.4 mph - N/A   Overcast
5:15 PM 10.6 °F -3.1 °F -0.2 °F 62% 30.08 in 10.0 mi SSE 10.4 mph 18.4 mph N/A   Overcast
5:35 PM 10.4 °F -2.4 °F -0.0 °F 63% 30.08 in 10.0 mi SSE 9.2 mph 20.7 mph N/A   Overcast
5:55 PM 10.4 °F -3.3 °F 0.3 °F 64% 30.08 in 10.0 mi SSE 10.4 mph 26.5 mph N/A   Overcast
6:14 PM 10.4 °F -4.1 °F 0.5 °F 64% 30.06 in 10.0 mi South 11.5 mph 20.7 mph N/A   Overcast
6:35 PM 10.4 °F -4.1 °F 0.5 °F 64% 30.04 in 10.0 mi South 11.5 mph 23.0 mph N/A   Overcast
6:55 PM 10.4 °F -4.8 °F 0.3 °F 64% 30.03 in 10.0 mi South 12.7 mph 18.4 mph N/A   Overcast
7:15 PM 10.4 °F -6.6 °F 0.1 °F 63% 30.02 in 10.0 mi South 16.1 mph 23.0 mph N/A   Overcast
7:35 PM 10.4 °F -3.3 °F -0.4 °F 62% 30.00 in 10.0 mi South 10.4 mph 19.6 mph N/A   Overcast
7:55 PM 10.4 °F -3.3 °F -0.4 °F 62% 29.99 in 10.0 mi South 10.4 mph 18.4 mph N/A   Overcast
8:15 PM 10.4 °F -6.6 °F -0.2 °F 62% 29.97 in 7.0 mi South 16.1 mph 27.6 mph N/A   Overcast
8:35 PM 10.4 °F -6.6 °F 0.1 °F 63% 29.94 in 10.0 mi SSE 16.1 mph 29.9 mph N/A   Overcast
8:55 PM 12.2 °F -1.0 °F 1.6 °F 63% 29.92 in 10.0 mi South 10.4 mph 25.3 mph N/A   Mostly Cloudy
9:15 PM 11.5 °F -4.7 °F 0.9 °F 62% 29.90 in 10.0 mi South 15.0 mph 23.0 mph N/A   Mostly Cloudy
9:35 PM 12.7 °F -4.6 °F 1.8 °F 62% 29.90 in 10.0 mi South 18.4 mph 27.6 mph N/A   Scattered Clouds
9:55 PM 12.9 °F -3.4 °F 1.8 °F 61% 29.88 in 10.0 mi South 16.1 mph 21.9 mph N/A   Mostly Cloudy
10:15 PM 12.9 °F -2.2 °F 1.9 °F 62% 29.87 in 10.0 mi South 13.8 mph 24.2 mph N/A   Mostly Cloudy
10:34 PM 12.9 °F -2.8 °F 1.9 °F 62% 29.86 in 10.0 mi South 15.0 mph 25.3 mph N/A   Scattered Clouds
10:55 PM 12.9 °F -0.2 °F 1.4 °F 60% 29.84 in 10.0 mi South 10.4 mph 17.3 mph N/A   Scattered Clouds
11:14 PM 12.9 °F -3.4 °F 0.5 °F 58% 29.83 in 10.0 mi South 16.1 mph 25.3 mph N/A   Clear
11:35 PM 13.6 °F -3.0 °F 1.0 °F 57% 29.82 in 10.0 mi South 17.3 mph 25.3 mph N/A   Mostly Cloudy
11:54 PM 14.0 °F 1.2 °F 1.2 °F 57% 29.82 in 10.0 mi South 10.4 mph 25.3 mph N/A   Scattered Clouds